English version Home page |
Updated on March 5, 2023 |
|
軌道要素Epoch 2023 Feb. 25.0 TT = JDT 2460000.5 T 2022 Jan. 12.39760 TT Rudenko q 3.3233589 (2000.0) P Q n 0.09390746 Peri. 167.42699 +0.88662351 -0.45408781 a 4.7936830 Node 219.95810 +0.41161597 +0.86128142 e 0.3067212 Incl. 7.85462 +0.21088158 +0.22803196 P 10.5 >From 231 observations 2021 June 22-2022 Dec. 14, mean residual 0".5.
|
光度変化m1 = 6.0 + 5 logΔ + 20.0 log r
|
軌道要素はM.P.E.C. 2022-Y15に掲載されたものです。
|